Regional Weather Roundup
Issued by NWS Sterling, VA

Home | Current Version | Previous Version | Graphics & Text | Print | Product List | Glossary On
Versions: 1 2 3 4 5 6 7 8 9 10 11 12 13 14 15 16 17 18 19 20 21 22 23 24 25 26 27 28 29 30 31 32 33 34 35 36 37 38 39 40 41 42 43 44 45 46 47 48 49 50
000
ASUS41 KLWX 281510
RWRLWX

REGIONAL WEATHER ROUNDUP
NATIONAL WEATHER SERVICE BALTIMORE MD/WASHINGTON DC
1000 AM EST WED JAN 28 2015

Note: "FAIR" indicates few or no clouds below 12,000 feet
with no significant weather and/or obstructions to visibility.
 TC=TEMPERATURE CELSIUS

 * =Non NWS site. Station does not report precipitation (e.g. rain,
    snow, etc.), thunder, or fog.

DCZ001-MDZ009-015-VAZ040>042-051-053>054-281600-
WASHINGTON METRO

CITY           SKY/WX    TMP DP  RH WIND       PRES   REMARKS
WASHINGTON NAT SUNNY     29   7  39 NW14      30.24R WCI  18
DULLES         SUNNY     26   7  44 NW14G21   30.24R WCI  14
ANDREWS AFB    SUNNY     26   7  43 NW17      30.20R WCI  13
FT BELVOIR     SUNNY     27   5  39 NW12      30.25R WCI  16
QUANTICO       SUNNY     29   6  38 N21G26    30.26R WCI  16
COLLEGE PARK*  SUNNY     28   7  40 NW12G18   30.22R WCI  18
LEESBURG*      SUNNY     27  12  54 N17G23    30.24S WCI  14
MANASSAS*      SUNNY     28  10  47 N18G25      N/A  WCI  16
GAITHERSBURG*  SUNNY     21   7  53 NW12G17   30.24R WCI   9

$$

MDZ006>007-011-014-281600-
BALTIMORE METRO

CITY           SKY/WX    TMP DP  RH WIND       PRES   REMARKS
BWI AIRPORT    SUNNY     27   3  35 NW14G22   30.20R WCI  16
MD SCIENCE CTR   N/A     27   1  32 MISG      30.20R
ANNAPOLIS      SUNNY     27   7  42 NW17      30.21R WCI  14
FORT MEADE*    SUNNY     28   9  43 NW13G20   30.24R WCI  18

$$

MDZ012-015-019>023-281600-
MARYLAND EASTERN SHORE

CITY           SKY/WX    TMP DP  RH WIND       PRES   REMARKS
OCEAN CITY     SUNNY     28   6  39 NW17G26   30.14R WCI  16
SALISBURY      SUNNY     31   7  36 NW20      30.16R WCI  19
BAY BRIDGE AP*   N/A     28   5  37 NW17G23   30.20S WCI  16
CAMBRIDGE*     SUNNY     30  10  43 NW14G24   30.19R WCI  20
EASTON*        SUNNY     30  10  43 NW16G22   30.22R WCI  19

$$

MDZ017>025-281600-
SOUTHERN MARYLAND

CITY           SKY/WX    TMP DP  RH WIND       PRES   REMARKS
PATUXENT RIVER SUNNY     28   8  43 NW18      30.21R WCI  15
ST INIGOES     SUNNY     29   6  38 VRB7G18   30.21R
LEONARDTOWN*   SUNNY     28   7  40 NW5G18    30.23R

$$

MDZ003>005-281600-
NORTH CENTRAL MARYLAND

CITY           SKY/WX    TMP DP  RH WIND       PRES   REMARKS
FREDERICK*     SUNNY     28  -2  26 NW10G17   30.26R WCI  19
HAGERSTOWN APT SUNNY     22   4  46 NW13      30.23R WCI  10
WESTMINSTER*   SUNNY     21   3  45 NW7       30.18R

$$

MDZ501>502-281600-
WESTERN MARYLAND

CITY           SKY/WX    TMP DP  RH WIND       PRES   REMARKS
OAKLAND*       SUNNY     14 N/A N/A CALM      30.15R
CUMBERLAND*    SUNNY     27   5  39 CALM      30.32R

$$

VAZ025>031-281600-
SHENANDOAH VALLEY

CITY           SKY/WX    TMP DP  RH WIND       PRES   REMARKS
WINCHESTER*    SUNNY     28   5  37 NW12      30.25R WCI  18
FRONT ROYAL*   FAIR      30   7  37 N8        30.23R WCI  23
LURAY*         FAIR      32  14  47 CALM      30.23R
NEW MARKET*    FAIR      24  13  63 CALM      30.23R
STAUNTON*      SUNNY     28  12  52 CALM      30.24R
WAYNESBORO*    FAIR      25  12  58 CALM      30.20R

$$

WVZ021-048>050-054>055-281600-
EASTERN WEST VIRGINIA PANHANDLE

CITY           SKY/WX    TMP DP  RH WIND       PRES   REMARKS
MARTINSBURG    SUNNY     26   5  40 NW7       30.26R
PETERSBURG*    SUNNY     16  14  93 CALM      30.28R

$$

VAZ036>039-050-281600-
CENTRAL FOOTHILLS

CITY           SKY/WX    TMP DP  RH WIND       PRES   REMARKS
CHARLOTTESVILL SUNNY     35   2  24 N8        30.20R WCI  29
CULPEPER*      SUNNY     32   3  29 N12G20    30.24R WCI  23
ORANGE*        SUNNY     32  12  43 N7        30.23R
GORDONSVILLE*  FAIR      29  13  51 CALM      30.22R
WARRENTON*     FAIR      32  13  45 N14       30.23R WCI  22

$$

VAZ055>057-281600-
NORTH AND CENTRAL PIEDMONT

CITY           SKY/WX    TMP DP  RH WIND       PRES   REMARKS
FREDERICKSBRG* SUNNY     31   8  37 N9G18     30.24R WCI  23
STAFFORD*      SUNNY     30   6  35 NW16G23   30.28R WCI  19

$$

NCZ024-NYZ072-PAZ021-071-VAZ022-071-281600-
OTHER REGIONAL OBSERVATIONS

CITY           SKY/WX    TMP DP  RH WIND       PRES   REMARKS
NEW YORK CITY  SUNNY     21   1  41 NW10G21   30.06R WCI  10
PHILADELPHIA   MOSUNNY   25   2  37 NW20G28   30.14R WCI  11
PITTSBURGH     PTSUNNY   12   9  87 W9        30.32R WCI   0
ROANOKE        SUNNY     31  14  49 NW14G20   30.26R WCI  21
RICHMOND       SUNNY     33   8  35 N13G22    30.23R WCI  24
RALEIGH        SUNNY     33  14  45 N8        30.24R WCI  26

$$

ANZ530>537-281600-
MARINE OBSERVATIONS

STATION/POSITION TIME  TEMP    WIND        PRES
                       AIR SEA DIR/SP/G
                 (UTC) (F)     (DEG/KT/KT) (MB)
THOMAS PT LIGHT  1500   26 36  340/ 17/ 21 1023.5S
BALT KEY BRIDGE  1500   26     310/ 17/ 18 1022.5R
COVE POINT       1500   25     350/ 21/ 25 1022.5R
LEWISETTA        1500   27 36  340/ 14/ 20 1023.2R
SOLOMONS ISLAND  1500      37                N/A
PINEY POINT      1500          340/ 14/ 16   N/A

$$




USA.gov is the U.S. government's official web portal to all federal, state and local government web resources and services.